TimeEST,TemperatureF,Dew PointF,Humidity,Sea Level PressureIn,VisibilityMPH,Wind Direction,Wind SpeedMPH,Gust SpeedMPH,PrecipitationIn,Events,Conditions,WindDirDegrees,DateUTC
12:15 AM,33.8,32.0,93,29.82,10.0,NW,8.1,-,N/A,,Scattered Clouds,310,2013-02-17 05:15:00
12:35 AM,33.8,30.2,87,29.83,10.0,NW,8.1,-,N/A,,Scattered Clouds,310,2013-02-17 05:35:00
12:55 AM,33.8,28.4,81,29.83,10.0,WNW,9.2,-,N/A,,Clear,300,2013-02-17 05:55:00
1:15 AM,32.0,28.4,87,29.84,10.0,WNW,8.1,-,N/A,,Clear,300,2013-02-17 06:15:00
1:35 AM,32.0,28.4,87,29.84,10.0,NW,9.2,-,N/A,,Clear,320,2013-02-17 06:35:00
1:55 AM,32.0,26.6,80,29.84,10.0,NW,8.1,-,N/A,,Clear,310,2013-02-17 06:55:00
2:15 AM,32.0,26.6,80,29.85,10.0,NW,9.2,-,N/A,,Clear,310,2013-02-17 07:15:00
2:35 AM,30.2,26.6,86,29.85,10.0,WNW,10.4,-,N/A,,Clear,300,2013-02-17 07:35:00
2:55 AM,30.2,26.6,86,29.86,10.0,NW,9.2,-,N/A,,Clear,310,2013-02-17 07:55:00
3:15 AM,30.2,24.8,80,29.86,10.0,WNW,8.1,-,N/A,,Clear,300,2013-02-17 08:15:00
3:35 AM,30.2,23.0,75,29.87,10.0,WNW,8.1,-,N/A,,Clear,300,2013-02-17 08:35:00
3:55 AM,28.4,23.0,80,29.88,10.0,WNW,6.9,-,N/A,,Clear,290,2013-02-17 08:55:00
4:15 AM,28.4,23.0,80,29.88,10.0,West,5.8,-,N/A,,Clear,280,2013-02-17 09:15:00
4:35 AM,28.4,23.0,80,29.89,10.0,WNW,5.8,-,N/A,,Scattered Clouds,290,2013-02-17 09:35:00
4:55 AM,28.4,23.0,80,29.89,10.0,West,6.9,-,N/A,,Scattered Clouds,280,2013-02-17 09:55:00
5:15 AM,28.4,23.0,80,29.90,10.0,WNW,8.1,-,N/A,,Clear,290,2013-02-17 10:15:00
5:35 AM,28.4,23.0,80,29.91,10.0,West,9.2,-,N/A,,Clear,280,2013-02-17 10:35:00
5:55 AM,26.6,23.0,86,29.92,10.0,West,9.2,-,N/A,,Clear,270,2013-02-17 10:55:00
6:15 AM,26.6,23.0,86,29.92,10.0,WNW,5.8,-,N/A,,Clear,290,2013-02-17 11:15:00
6:35 AM,26.6,23.0,86,29.93,10.0,West,8.1,-,N/A,,Clear,280,2013-02-17 11:35:00
6:55 AM,26.6,23.0,86,29.94,10.0,West,6.9,-,N/A,,Clear,270,2013-02-17 11:55:00
7:15 AM,26.6,23.0,86,29.95,10.0,West,6.9,-,N/A,,Clear,280,2013-02-17 12:15:00
7:35 AM,26.6,23.0,86,29.96,10.0,West,8.1,-,N/A,,Clear,270,2013-02-17 12:35:00
7:55 AM,28.4,23.0,80,29.96,10.0,West,11.5,-,N/A,,Clear,280,2013-02-17 12:55:00
8:15 AM,28.4,21.2,74,29.97,10.0,West,11.5,-,N/A,,Clear,280,2013-02-17 13:15:00
8:35 AM,28.4,21.2,74,29.98,10.0,WNW,12.7,18.4,N/A,,Clear,290,2013-02-17 13:35:00
8:55 AM,30.2,21.2,69,29.98,10.0,WNW,12.7,19.6,N/A,,Clear,290,2013-02-17 13:55:00
9:15 AM,30.2,21.2,69,29.99,10.0,West,15.0,19.6,N/A,,Scattered Clouds,280,2013-02-17 14:15:00
9:35 AM,28.4,19.4,69,29.99,10.0,WNW,12.7,21.9,N/A,,Mostly Cloudy,290,2013-02-17 14:35:00
9:55 AM,30.2,19.4,64,30.00,10.0,West,12.7,23.0,N/A,,Overcast,280,2013-02-17 14:55:00
10:15 AM,30.2,19.4,64,30.01,10.0,West,11.5,-,N/A,,Mostly Cloudy,280,2013-02-17 15:15:00
10:35 AM,30.2,19.4,64,30.01,10.0,West,17.3,26.5,N/A,,Overcast,270,2013-02-17 15:35:00
10:55 AM,30.2,19.4,64,30.02,10.0,WNW,17.3,21.9,N/A,,Mostly Cloudy,290,2013-02-17 15:55:00
11:15 AM,30.2,19.4,64,30.02,10.0,WNW,16.1,24.2,N/A,,Mostly Cloudy,290,2013-02-17 16:15:00
11:35 AM,30.2,21.2,69,30.02,10.0,West,13.8,24.2,N/A,,Overcast,280,2013-02-17 16:35:00
11:55 AM,32.0,19.4,60,30.02,10.0,WNW,16.1,21.9,N/A,,Overcast,290,2013-02-17 16:55:00
12:15 PM,30.2,17.6,60,30.03,10.0,West,16.1,21.9,N/A,,Overcast,280,2013-02-17 17:15:00
12:35 PM,32.0,17.6,55,30.02,10.0,West,16.1,24.2,N/A,,Overcast,280,2013-02-17 17:35:00
12:55 PM,32.0,17.6,55,30.02,10.0,WNW,15.0,23.0,N/A,,Overcast,300,2013-02-17 17:55:00
1:15 PM,32.0,15.8,51,30.02,10.0,West,17.3,24.2,N/A,,Mostly Cloudy,260,2013-02-17 18:15:00
1:55 PM,33.8,15.8,48,30.03,10.0,West,19.6,26.5,N/A,,Mostly Cloudy,260,2013-02-17 18:55:00
2:15 PM,33.8,15.8,48,30.03,10.0,West,19.6,29.9,N/A,,Mostly Cloudy,280,2013-02-17 19:15:00
2:35 PM,33.8,17.6,52,30.03,10.0,West,19.6,25.3,N/A,,Mostly Cloudy,280,2013-02-17 19:35:00
2:55 PM,33.8,15.8,48,30.03,10.0,WNW,19.6,28.8,N/A,,Scattered Clouds,290,2013-02-17 19:55:00
3:15 PM,32.0,15.8,51,30.04,10.0,West,19.6,25.3,N/A,,Scattered Clouds,270,2013-02-17 20:15:00
3:35 PM,32.0,14.0,48,30.05,10.0,West,17.3,23.0,N/A,,Scattered Clouds,280,2013-02-17 20:35:00
3:55 PM,32.0,12.2,44,30.06,10.0,West,18.4,24.2,N/A,,Scattered Clouds,270,2013-02-17 20:55:00
4:15 PM,33.8,12.2,41,30.07,10.0,West,20.7,26.5,N/A,,Mostly Cloudy,270,2013-02-17 21:15:00
4:35 PM,33.8,12.2,41,30.07,10.0,WNW,16.1,23.0,N/A,,Scattered Clouds,290,2013-02-17 21:35:00
4:55 PM,32.0,10.4,41,30.08,10.0,WNW,19.6,26.5,N/A,,Clear,300,2013-02-17 21:55:00
5:15 PM,32.0,10.4,41,30.10,10.0,West,17.3,26.5,N/A,,Clear,280,2013-02-17 22:15:00
5:35 PM,30.2,8.6,40,30.11,10.0,West,16.1,24.2,N/A,,Clear,280,2013-02-17 22:35:00
5:55 PM,30.2,8.6,40,30.12,10.0,West,11.5,18.4,N/A,,Clear,280,2013-02-17 22:55:00
6:15 PM,30.2,8.6,40,30.13,10.0,WNW,12.7,17.3,N/A,,Clear,290,2013-02-17 23:15:00
6:35 PM,30.2,8.6,40,30.14,10.0,West,9.2,-,N/A,,Clear,280,2013-02-17 23:35:00
6:55 PM,30.2,10.4,44,30.15,10.0,West,6.9,-,N/A,,Clear,270,2013-02-17 23:55:00
7:15 PM,30.2,8.6,40,30.16,10.0,West,4.6,-,N/A,,Clear,270,2013-02-18 00:15:00
7:55 PM,28.4,10.4,47,30.17,10.0,West,3.5,-,N/A,,Clear,270,2013-02-18 00:55:00
8:15 PM,28.4,12.2,51,30.18,10.0,WSW,3.5,-,N/A,,Clear,250,2013-02-18 01:15:00
8:35 PM,26.6,12.2,55,30.19,10.0,Calm,Calm,-,N/A,,Clear,0,2013-02-18 01:35:00
8:55 PM,26.6,12.2,55,30.20,10.0,West,4.6,-,N/A,,Clear,280,2013-02-18 01:55:00
9:15 PM,26.6,12.2,55,30.20,10.0,West,5.8,-,N/A,,Clear,270,2013-02-18 02:15:00
9:35 PM,26.6,12.2,55,30.21,10.0,West,5.8,-,N/A,,Clear,270,2013-02-18 02:35:00
9:55 PM,26.6,12.2,55,30.22,10.0,WNW,4.6,-,N/A,,Clear,300,2013-02-18 02:55:00
10:15 PM,26.6,12.2,55,30.22,10.0,West,3.5,-,N/A,,Clear,280,2013-02-18 03:15:00
10:35 PM,26.6,12.2,55,30.23,10.0,WNW,5.8,-,N/A,,Clear,300,2013-02-18 03:35:00
10:55 PM,26.6,12.2,55,30.24,10.0,NW,4.6,-,N/A,,Clear,310,2013-02-18 03:55:00
11:15 PM,26.6,12.2,55,30.24,10.0,NW,4.6,-,N/A,,Clear,310,2013-02-18 04:15:00
11:35 PM,26.6,10.4,51,30.25,10.0,NW,4.6,-,N/A,,Clear,310,2013-02-18 04:35:00
11:55 PM,26.6,10.4,51,30.25,10.0,WNW,5.8,-,N/A,,Clear,290,2013-02-18 04:55:00